FLOCK 2B-13

Last updated on Oct. 12, 2016, 5:19 a.m. UTC

1 40979U 98067HM  16284.76106737  .08653240  12330-4  90101-3 0  9992
2 40979  51.6413 149.6107 0005628 280.5106  80.0595 16.36884761 58079

Satellite is not in orbit.